• In United Kingdom
  • List of Countries
  • For 7 days
  • Water Temperature
  • Satellite Maps
  • Weather Map
  • Weather Widgets
  • user-avatar
    Login

    Hourly Weather Melbourne

    Today, 30 May, Tuesday

    Time Temperature Precipitation Wind Pressure Humidity
    00:00 +11°C° 0 mm 4 mps 763 mmHg 77%
    01:00 +11°C° 0 mm 4 mps 763 mmHg 76%
    02:00 +11°C° 0 mm 4 mps 763 mmHg 78%
    03:00 +11°C° 0 mm 4 mps 763 mmHg 79%
    04:00 +10°C° 0 mm 5 mps 762 mmHg 81%
    05:00 +10°C° 0.2 mm 5 mps 762 mmHg 83%
    06:00 +10°C° 0.2 mm 5 mps 762 mmHg 84%
    07:00 +10°C° 0.2 mm 5 mps 763 mmHg 86%
    08:00 +11°C° 0.6 mm 4 mps 763 mmHg 87%
    09:00 +11°C° 0.6 mm 4 mps 764 mmHg 87%
    10:00 +11°C° 0 mm 4 mps 765 mmHg 86%
    11:00 +11°C° 0.1 mm 4 mps 765 mmHg 79%
    12:00 +12°C° 0.1 mm 4 mps 765 mmHg 72%
    13:00 +12°C° 0.1 mm 4 mps 766 mmHg 65%
    14:00 +12°C° 0.2 mm 4 mps 766 mmHg 65%
    15:00 +11°C° 0.2 mm 4 mps 766 mmHg 64%
    16:00 +11°C° 0.2 mm 4 mps 767 mmHg 64%
    17:00 +10°C° 0.1 mm 4 mps 767 mmHg 69%
    18:00 +8°C° 0.1 mm 3 mps 768 mmHg 74%
    19:00 +7°C° 0.1 mm 3 mps 768 mmHg 79%
    20:00 +7°C° 0.2 mm 3 mps 769 mmHg 80%
    21:00 +7°C° 0.2 mm 3 mps 769 mmHg 82%
    22:00 +5°C° 0.2 mm 3 mps 770 mmHg 83%
    23:00 +5°C° 0.2 mm 3 mps 770 mmHg 84%

    Tomorrow, 31 May, Wednesday

    Time Temperature Precipitation Wind Pressure Humidity
    00:00 +5°C° 0.2 mm 3 mps 770 mmHg 85%
    01:00 +6°C° 0.2 mm 2 mps 770 mmHg 85%
    02:00 +6°C° 0.1 mm 2 mps 771 mmHg 86%
    03:00 +6°C° 0.1 mm 2 mps 771 mmHg 86%
    04:00 +6°C° 0.1 mm 2 mps 771 mmHg 87%
    05:00 +7°C° 0 mm 2 mps 771 mmHg 87%
    06:00 +7°C° 0 mm 2 mps 772 mmHg 88%
    07:00 +7°C° 0 mm 2 mps 772 mmHg 88%
    08:00 +8°C° 0 mm 2 mps 773 mmHg 84%
    09:00 +9°C° 0 mm 3 mps 773 mmHg 80%
    10:00 +10°C° 0 mm 3 mps 773 mmHg 76%
    11:00 +10°C° 0.1 mm 3 mps 773 mmHg 73%
    12:00 +11°C° 0.1 mm 3 mps 773 mmHg 69%
    13:00 +12°C° 0.1 mm 3 mps 773 mmHg 66%
    14:00 +12°C° 0 mm 3 mps 773 mmHg 66%
    15:00 +12°C° 0 mm 3 mps 773 mmHg 66%
    16:00 +11°C° 0 mm 3 mps 773 mmHg 66%
    17:00 +10°C° 0 mm 2 mps 774 mmHg 71%
    18:00 +9°C° 0 mm 2 mps 774 mmHg 77%
    19:00 +8°C° 0 mm 2 mps 774 mmHg 82%
    20:00 +8°C° 0 mm 2 mps 775 mmHg 84%
    21:00 +8°C° 0 mm 2 mps 775 mmHg 85%
    22:00 +8°C° 0 mm 2 mps 775 mmHg 87%
    23:00 +8°C° 0 mm 2 mps 775 mmHg 87%

    Day after tomorrow, 1 June, Thursday

    Time Temperature Precipitation Wind Pressure Humidity
    00:00 +8°C° 0 mm 1 mps 775 mmHg 88%
    01:00 +8°C° 0 mm 1 mps 775 mmHg 89%
    02:00 +8°C° 0 mm 1 mps 775 mmHg 90%
    03:00 +7°C° 0 mm 1 mps 775 mmHg 92%
    04:00 +7°C° 0 mm 1 mps 775 mmHg 93%
    05:00 +7°C° 0 mm 1 mps 775 mmHg 93%
    06:00 +7°C° 0 mm 1 mps 775 mmHg 92%
    07:00 +6°C° 0 mm 2 mps 776 mmHg 91%
    08:00 +8°C° 0 mm 2 mps 776 mmHg 85%
    09:00 +9°C° 0 mm 2 mps 776 mmHg 80%
    10:00 +12°C° 0 mm 2 mps 776 mmHg 74%
    11:00 +13°C° 0 mm 2 mps 776 mmHg 70%
    12:00 +14°C° 0 mm 2 mps 776 mmHg 66%
    13:00 +14°C° 0 mm 2 mps 775 mmHg 62%
    14:00 +14°C° 0 mm 2 mps 775 mmHg 63%
    15:00 +14°C° 0 mm 2 mps 775 mmHg 65%
    16:00 +14°C° 0 mm 2 mps 775 mmHg 66%
    17:00 +12°C° 0 mm 1 mps 775 mmHg 74%
    18:00 +10°C° 0 mm 1 mps 775 mmHg 81%
    19:00 +9°C° 0 mm 1 mps 775 mmHg 89%
    20:00 +8°C° 0 mm 1 mps 776 mmHg 90%
    21:00 +7°C° 0 mm 1 mps 776 mmHg 92%
    22:00 +7°C° 0 mm 1 mps 776 mmHg 93%
    23:00 +7°C° 0 mm 1 mps 776 mmHg 93%

    2 June, Friday

    Time Temperature Precipitation Wind Pressure Humidity
    00:00 +7°C° 0 mm 1 mps 776 mmHg 92%
    01:00 +7°C° 0 mm 1 mps 776 mmHg 91%
    02:00 +6°C° 0 mm 1 mps 776 mmHg 92%
    03:00 +6°C° 0 mm 1 mps 775 mmHg 92%
    04:00 +6°C° 0 mm 1 mps 775 mmHg 93%
    05:00 +6°C° 0 mm 1 mps 776 mmHg 93%
    06:00 +6°C° 0 mm 1 mps 776 mmHg 94%
    07:00 +5°C° 0 mm 1 mps 776 mmHg 94%
    08:00 +7°C° 0 mm 1 mps 776 mmHg 87%
    09:00 +10°C° 0 mm 1 mps 776 mmHg 80%
    10:00 +12°C° 0 mm 1 mps 776 mmHg 73%
    11:00 +13°C° 0 mm 1 mps 776 mmHg 68%
    12:00 +14°C° 0 mm 1 mps 775 mmHg 63%
    13:00 +15°C° 0 mm 1 mps 775 mmHg 57%
    14:00 +15°C° 0 mm 1 mps 775 mmHg 60%
    15:00 +15°C° 0 mm 1 mps 774 mmHg 62%
    16:00 +14°C° 0 mm 1 mps 774 mmHg 65%
    17:00 +12°C° 0 mm 1 mps 774 mmHg 74%
    18:00 +9°C° 0 mm 1 mps 775 mmHg 84%
    19:00 +7°C° 0 mm 1 mps 775 mmHg 94%
    20:00 +6°C° 0 mm 1 mps 775 mmHg 94%
    21:00 +6°C° 0 mm 1 mps 775 mmHg 94%
    22:00 +5°C° 0 mm 0 mps 775 mmHg 94%
    23:00 +6°C° 0 mm 1 mps 775 mmHg 94%

    3 June, Saturday

    Time Temperature Precipitation Wind Pressure Humidity
    00:00 +5°C° 0 mm 1 mps 775 mmHg 94%
    01:00 +5°C° 0 mm 1 mps 775 mmHg 95%
    02:00 +5°C° 0 mm 1 mps 774 mmHg 94%
    03:00 +6°C° 0 mm 1 mps 774 mmHg 94%
    04:00 +6°C° 0 mm 1 mps 774 mmHg 94%
    05:00 +6°C° 0 mm 1 mps 774 mmHg 94%
    06:00 +5°C° 0 mm 1 mps 774 mmHg 94%
    07:00 +5°C° 0 mm 1 mps 774 mmHg 94%
    08:00 +7°C° 0 mm 1 mps 774 mmHg 89%
    09:00 +10°C° 0 mm 1 mps 775 mmHg 83%
    10:00 +12°C° 0 mm 1 mps 775 mmHg 78%
    11:00 +13°C° 0 mm 1 mps 774 mmHg 73%
    12:00 +14°C° 0 mm 1 mps 773 mmHg 67%
    13:00 +15°C° 0 mm 1 mps 773 mmHg 62%
    14:00 +15°C° 0 mm 1 mps 773 mmHg 65%
    15:00 +14°C° 0 mm 1 mps 772 mmHg 67%
    16:00 +14°C° 0 mm 1 mps 772 mmHg 70%
    17:00 +12°C° 0 mm 1 mps 772 mmHg 78%
    18:00 +9°C° 0 mm 1 mps 772 mmHg 86%
    19:00 +7°C° 0 mm 1 mps 772 mmHg 94%
    20:00 +6°C° 0 mm 1 mps 772 mmHg 95%
    21:00 +5°C° 0 mm 0 mps 772 mmHg 95%
    22:00 +4°C° 0 mm 0 mps 772 mmHg 96%
    23:00 +4°C° 0 mm 0 mps 772 mmHg 96%

    4 June, Sunday

    Time Temperature Precipitation Wind Pressure Humidity
    00:00 +4°C° 0 mm 0 mps 771 mmHg 97%
    01:00 +3°C° 0 mm 0 mps 771 mmHg 97%
    02:00 +3°C° 0 mm 0 mps 771 mmHg 97%
    03:00 +4°C° 0 mm 1 mps 771 mmHg 97%
    04:00 +4°C° 0 mm 1 mps 770 mmHg 97%
    05:00 +5°C° 0 mm 1 mps 770 mmHg 96%
    06:00 +6°C° 0 mm 1 mps 770 mmHg 95%
    07:00 +7°C° 0 mm 1 mps 770 mmHg 95%
    08:00 +8°C° 0 mm 1 mps 770 mmHg 88%
    09:00 +10°C° 0 mm 1 mps 770 mmHg 80%
    10:00 +11°C° 0 mm 1 mps 770 mmHg 73%
    11:00 +13°C° 0 mm 1 mps 769 mmHg 66%
    12:00 +14°C° 0 mm 1 mps 768 mmHg 58%
    13:00 +16°C° 0 mm 1 mps 767 mmHg 50%
    14:00 +15°C° 0 mm 1 mps 767 mmHg 53%
    15:00 +15°C° 0 mm 1 mps 767 mmHg 57%
    16:00 +15°C° 0 mm 1 mps 767 mmHg 60%
    17:00 +13°C° 0 mm 2 mps 767 mmHg 67%
    18:00 +10°C° 0 mm 2 mps 767 mmHg 74%
    19:00 +8°C° 0 mm 2 mps 767 mmHg 81%
    20:00 +8°C° 0 mm 2 mps 767 mmHg 81%
    21:00 +8°C° 0 mm 2 mps 767 mmHg 81%
    22:00 +7°C° 0 mm 2 mps 767 mmHg 81%
    23:00 +7°C° 0 mm 2 mps 767 mmHg 80%
    Show more